Skip Page Navigation
NASA JPL Caltech
NASA Logo - Jet Propulsion Laboratory + View the NASA Portal
+ Center for Near-Earth Object Studies
JPL Home Earth Solar System Stars & Galaxies Technology
JPL Solar System Dynamics
BODIES ORBITS EPHEMERIDES TOOLS PHYSICAL DATA DISCOVERY FAQ SITE MAP
IMPORTANT: The SSD Announcement email list is now available. Major changes are coming in the near future, including possible hostname and/or URL changes. To be notified of such changes, subscribe to this email list.

Please visit this page for more details.


JPL Small-Body Database Browser
Search: [ help ]  
359253 (2009 FY25)
Classification: Main-belt Asteroid          SPK-ID: 2359253
Ephemeris | Orbit Diagram | Orbital Elements | Mission Design | Physical Parameters | Discovery Circumstances ]

[ show orbit diagram ]
Orbital Elements at Epoch 2458600.5 (2019-Apr-27.0) TDB
Reference: JPL 9 (heliocentric ecliptic J2000)
 Element Value Uncertainty (1-sigma)   Units 
e .08523611920511402 1.0668e-07  
a 2.552556339533507 3.1645e-08 au
q 2.334986343099259 2.7791e-07 au
i 16.51909414159066 6.6442e-06 deg
node 63.79961296469016 2.4965e-05 deg
peri 142.9169342327324 4.5448e-05 deg
M 147.3121995352947 4.2446e-05 deg
tp 2457990.966408076145
(2017-Aug-25.46640808)
0.00017194 TDB
period 1489.571765168125
4.08
2.77e-05
7.584e-08
d
yr
n .2416801985766477 4.4943e-09 deg/d
Q 2.770126335967754 3.4342e-08 au
  Orbit Determination Parameters
   # obs. used (total)      119  
   data-arc span      5813 days (15.92 yr)  
   first obs. used      2003-12-01  
   last obs. used      2019-10-31  
   planetary ephem.      DE431  
   SB-pert. ephem.      SB431-N16  
   condition code      0  
   norm. resid. RMS      .68379  
   source      ORB  
   producer      Otto Matic  
   solution date      2019-Nov-08 11:15:28  

Additional Information
 Earth MOID = 1.34275 au 
 Jupiter MOID = 2.24609 au 
 T_jup = 3.377 
[ show covariance matrix ]

Ephemeris | Orbit Diagram | Orbital Elements | Mission Design | Physical Parameters | Discovery Circumstances ]

Physical Parameter Table
Parameter Symbol Value Units Sigma Reference Notes
absolute magnitude H 17.1   n/a MPO360753  

359253 (2009 FY25)          Discovered 2009-Mar-18 by Mt. Lemmon Survey at Mount Lemmon
Reference: 20130327/Numbers.arcLast Updated: 2013-03-29
Ephemeris | Orbit Diagram | Orbital Elements | Mission Design | Physical Parameters | Discovery Circumstances ]
ABOUT SSD CREDITS/AWARDS PRIVACY/COPYRIGHT GLOSSARY LINKS
FirstGov
(server date/time)  
NASA Home Page
Site Manager:   Ryan S. Park
Webmaster  Alan B. Chamberlin